"TOA5","AWS1","CR1000","7964","CR1000.Std.14","CPU:AWS1_114.CR1","64363","TBL110"
"TIMESTAMP","RECORD","Wind_spd_WVc(1)","Wind_spd_WVc(2)","Air_Temp_Avg","Humidity_Avg","SW_upper_Wm2_Avg","Rain_Tot","Press_Avg","Issui_Tot","Depth_cm","SR50A_Raw","Quality","Ground_Temp_Avg(1)","Ground_Temp_Avg(2)","SW_lower_Wm2_Avg","Albedo_Avg","SWC_per(1)","SWC_per(2)","Period(1)","Period(2)"
"TS","RN","","","","","","","","","","","","","","","","","","",""
"","","WVc","WVc","Avg","Avg","Avg","Tot","Avg","Tot","Smp","Smp","Smp","Avg","Avg","Avg","Avg","Smp","Smp","Smp","Smp"
"2016-10-18 00:00:00",257965,0,0,13.53,100,0,0,870.1973,0,-3.55,3.139,196,13.36,13.44,0,0,51.88,59.91,33.76,35.66
"2016-10-18 00:10:00",257966,0,0,13.46,100,0,0,870.1953,0,-3.219,3.136,201,13.36,13.44,0,0,51.82,59.91,33.75,35.66
"2016-10-18 00:20:00",257967,0,0,13.43,100,0,0,870.1868,0,-2.525,3.129,217,13.38,13.44,0,0,51.82,59.85,33.75,35.64
"2016-10-18 00:30:00",257968,0,0,13.46,100,0,0,870.1868,0,-2.682,3.131,199,13.38,13.45,0,0,51.82,59.85,33.75,35.64
"2016-10-18 00:40:00",257969,0,0,13.42,100,0,0,870.1868,0,-2.477,3.129,208,13.39,13.45,0,0,51.82,59.85,33.75,35.64
"2016-10-18 00:50:00",257970,0,0,13.44,100,0,0,870.1868,0,-2.273,3.127,214,13.4,13.45,0,0,51.82,59.85,33.75,35.64
"2016-10-18 01:00:00",257971,0,0,13.45,100,0,0,870.1889,0,-2.321,3.127,208,13.41,13.45,0.07958036,0,51.82,59.85,33.75,35.64
"2016-10-18 01:10:00",257972,0,0,13.5,100,0,0,870.191,0,-2.399,3.128,213,13.42,13.45,0,0,51.82,59.85,33.75,35.64
"2016-10-18 01:20:00",257973,0,0,13.38,100,0,0,870.1594,0,-2.405,3.129,209,13.42,13.47,0.09473852,0,51.82,59.79,33.75,35.63
"2016-10-18 01:30:00",257974,0,0,13.16,100,0,0,869.9424,0,-2.591,3.132,201,13.43,13.49,0.140213,0,51.82,59.85,33.75,35.64
"2016-10-18 01:40:00",257975,0.114,103.9,12.99,100,0,0,869.8983,0,-2.517,3.132,197,13.4,13.5,0.4547449,0,51.82,59.79,33.75,35.63
"2016-10-18 01:50:00",257976,0.827,51.24,12.92,100,0,0,869.6813,0,-2.337,3.13,201,13.39,13.51,0.5646416,0,51.82,59.79,33.75,35.63
"2016-10-18 02:00:00",257977,0.691,24.9,13.15,100,0,0,869.7129,0,-2.687,3.132,202,13.38,13.5,0.82612,0,51.77,59.79,33.73,35.63
"2016-10-18 02:10:00",257978,0.301,357.1,13.31,100,0,0,869.6813,0,-2.634,3.131,213,13.38,13.5,0.8033827,0,51.77,59.79,33.73,35.63
"2016-10-18 02:20:00",257979,0.254,307.7,13.21,100,0,0,869.6876,0,-3.414,3.141,203,13.37,13.5,0.553273,0,51.77,59.73,33.73,35.62
"2016-10-18 02:30:00",257980,0.114,331.6,12.58,100,0,0,869.6813,0,-3.204,3.143,204,13.39,13.5,0.2538992,0,51.77,59.73,33.73,35.62
"2016-10-18 02:40:00",257981,0.086,218.8,11.99,100,0,0,869.5275,0,-3.081,3.143,198,13.42,13.5,0.2160038,0,51.77,59.79,33.73,35.63
"2016-10-18 02:50:00",257982,0.399,71.01,12.39,100,0,0,869.4307,0,-3.107,3.138,204,13.37,13.5,1.800032,0,51.77,59.73,33.73,35.62
"2016-10-18 03:00:00",257983,0.758,42.92,13.06,100,0,0,869.4286,0,-3.428,3.139,196,13.37,13.5,1.40213,0,51.71,59.73,33.72,35.62
"2016-10-18 03:10:00",257984,0.493,357.6,13.2,100,0,0,869.4327,0,-3.199,3.137,220,13.37,13.5,0.7616977,0,51.71,59.79,33.72,35.63
"2016-10-18 03:20:00",257985,0.327,311.3,13.07,100,0,0,869.5192,0,-3.643,3.143,211,13.37,13.5,0.5002194,0,51.77,59.73,33.73,35.62
"2016-10-18 03:30:00",257986,0.188,154.4,12.66,100,0,0,869.4286,0,-3.365,3.141,213,13.37,13.49,0.2122143,0,51.77,59.73,33.73,35.62
"2016-10-18 03:40:00",257987,0.55,33.6,12.79,100,0,0,869.4286,0,-3.467,3.142,208,13.37,13.49,0.5267462,0,51.71,59.73,33.72,35.62
"2016-10-18 03:50:00",257988,0.274,32.66,12.68,100,0,0,869.4286,0,-3.472,3.143,212,13.35,13.49,0.5040089,0,51.71,59.67,33.72,35.6
"2016-10-18 04:00:00",257989,0.398,27,12.58,100,0,0,869.5192,0,-3.346,3.142,201,13.3,13.49,0.6555906,0,51.71,59.73,33.72,35.62
"2016-10-18 04:10:00",257990,0.093,353.1,12.89,100,0,0,869.6791,0,-4.081,3.148,201,13.32,13.49,1.023176,0,51.71,59.67,33.72,35.6
"2016-10-18 04:20:00",257991,0,0,12.57,100,0,0,869.7676,0,-3.583,3.146,196,13.32,13.49,0.8602258,0,51.66,59.73,33.7,35.62
"2016-10-18 04:30:00",257992,0,0,11.88,100,0,0,869.9235,0,-3.957,3.153,197,13.35,13.5,0.4433763,0,51.71,59.67,33.72,35.6
"2016-10-18 04:40:00",257993,0,0,11.63,100,0,0,869.9193,0,-3.343,3.147,206,13.32,13.51,0.4547449,0,51.66,59.67,33.7,35.6
"2016-10-18 04:50:00",257994,0,0,11.86,100,0.2711896,0,869.934,0,-2.868,3.139,202,13.28,13.53,0.7768559,0.828,51.66,59.67,33.7,35.6
"2016-10-18 05:00:00",257995,0.021,72.57,12.47,100,0.1179085,0,869.9656,0,-3.706,3.146,196,13.28,13.54,1.208864,0.426,51.71,59.67,33.72,35.6
"2016-10-18 05:10:00",257996,0.333,36.51,12.5,100,0,0,870.1341,0,-3.448,3.143,196,13.27,13.55,0.924648,0,51.66,59.67,33.7,35.6
"2016-10-18 05:20:00",257997,0.087,38.77,12.68,100,0,0,870.0372,0,-3.881,3.147,190,13.26,13.56,1.098967,0,51.66,59.67,33.7,35.6
"2016-10-18 05:30:00",257998,0.021,308.1,12.73,98.7,0,0,870.0078,0,-3.56,3.141,195,13.23,13.56,1.330129,0,51.66,59.67,33.7,35.6
"2016-10-18 05:40:00",257999,0.1,238.9,13.12,90.6,0,0,869.934,0,-3.492,3.142,194,13.23,13.6,1.227811,0,51.66,59.61,33.7,35.59
"2016-10-18 05:50:00",258000,0.197,169.9,12.91,93.3,0,0,869.934,0,-2.98,3.137,197,13.24,13.61,1.026966,0,51.71,59.61,33.72,35.59
"2016-10-18 06:00:00",258001,0.146,195.6,13,91.4,0,0,869.934,0,-3.204,3.138,191,13.27,13.62,1.019387,0,51.66,59.61,33.7,35.59
"2016-10-18 06:10:00",258002,0.286,201.1,13.1,89.8,2.448566,0,870.0899,0,-3.131,3.138,203,13.26,13.62,1.110335,0.713,51.66,59.61,33.7,35.59
"2016-10-18 06:20:00",258003,0.385,178.9,12.89,92.1,6.551782,0,870.1805,0,-2.98,3.137,197,13.2,13.62,1.614344,0.249,51.66,59.61,33.7,35.59
"2016-10-18 06:30:00",258004,0.158,131.3,13.11,89.8,13.26078,0,870.1426,0,-3.199,3.137,196,13.17,13.62,2.739838,0.209,51.66,59.61,33.7,35.59
"2016-10-18 06:40:00",258005,0.17,175.9,12.88,91.4,28.1369,0,870.1847,0,-2.761,3.137,197,13.14,13.6,4.596713,0.166,51.66,59.56,33.7,35.58
"2016-10-18 06:50:00",258006,0.55,169.3,12.78,93.6,52.30421,0,870.1257,0,-2.849,3.135,198,13.15,13.59,8.727313,0.166,51.66,59.61,33.7,35.59
"2016-10-18 07:00:00",258007,0.883,169.5,12.85,94.2,53.68767,0,869.9446,0,-1.917,3.124,206,13.15,13.58,9.038055,0.185,51.66,59.56,33.7,35.58
"2016-10-18 07:10:00",258008,0.363,282,13.42,89.1,39.6487,0,869.9762,0,-2.833,3.132,200,13.15,13.58,8.120986,0.207,51.66,59.56,33.7,35.58
"2016-10-18 07:20:00",258009,0.269,3.514,13.2,90.3,53.36539,0,870.1868,0,-3.005,3.137,206,13.15,13.58,8.958475,0.176,51.66,59.56,33.7,35.58
"2016-10-18 07:30:00",258010,0.387,359.2,12.83,96,40.64306,0,870.3047,0,-3.287,3.14,203,13.15,13.58,10.50461,0.259,51.66,59.56,33.7,35.58
"2016-10-18 07:40:00",258011,0.329,332.7,12.84,98.3,42.8283,0,870.4395,0,-3.234,3.139,221,13.15,13.58,13.35813,0.312,51.6,59.56,33.69,35.58
"2016-10-18 07:50:00",258012,0.175,129.4,13.32,100,54.26543,0,870.4395,0,-3.575,3.139,203,13.15,13.58,15.58259,0.288,51.66,59.56,33.7,35.58
"2016-10-18 08:00:00",258013,0.038,128.4,13.66,98.5,52.11556,0,870.4395,0,-3.534,3.136,201,13.15,13.56,13.38466,0.253,51.6,59.56,33.69,35.58
"2016-10-18 08:10:00",258014,0.312,137.2,14.25,94.8,98.12345,0,870.4395,0,-3.162,3.13,206,13.14,13.55,15.99944,0.208,51.66,59.56,33.7,35.58
"2016-10-18 08:20:00",258015,0.239,143.1,14.47,92.8,46.94724,0,870.4395,0,-3.235,3.13,201,13.15,13.59,16.2685,0.348,51.6,59.56,33.69,35.58
"2016-10-18 08:30:00",258016,0.426,359.2,14.42,89.6,167.5873,0,870.5133,0,-0.736,3.108,217,13.15,13.6,31.79046,0.234,51.6,59.5,33.69,35.56
"2016-10-18 08:40:00",258017,0.468,348.2,13.8,98.3,218.06,0,870.6923,0,-0.88,3.112,223,13.14,13.59,32.00646,0.147,51.6,59.5,33.69,35.56
"2016-10-18 08:50:00",258018,0.406,324.7,13.48,100,170.4682,0,870.6923,0,-0.79,3.113,208,13.14,13.59,25.74614,0.151,51.66,59.5,33.7,35.56
"2016-10-18 09:00:00",258019,0.813,309.8,13.43,100,125.9341,0,870.7386,0,0.452,3.099,216,13.14,13.59,20.69468,0.163,51.6,59.5,33.69,35.56
"2016-10-18 09:10:00",258020,0.627,297.8,13.95,97,89.55936,0,870.7976,0,-0.808,3.108,209,13.14,13.6,20.51657,0.227,51.6,59.5,33.69,35.56
"2016-10-18 09:20:00",258021,0.397,318.6,14.6,88.4,71.1853,0,870.9113,0,-0.68,3.103,202,13.14,13.59,19.9292,0.283,51.6,59.5,33.69,35.56
"2016-10-18 09:30:00",258022,0.422,334.6,15.15,84.7,140.0242,0,870.9282,0,-1.426,3.107,205,13.11,13.61,30.58539,0.229,51.6,59.5,33.69,35.56
"2016-10-18 09:40:00",258023,0.308,353.4,15.57,82.3,178.4978,0,870.7218,0,-2.819,3.121,194,13.11,13.59,30.13443,0.169,51.66,59.44,33.7,35.55
"2016-10-18 09:50:00",258024,0.191,304,15.8,82.9,141.6946,0,870.7007,0,-1.867,3.108,205,13.09,13.62,29.97148,0.212,51.6,59.44,33.69,35.55
"2016-10-18 10:00:00",258025,0.391,156,16.37,80.7,184.8569,0,870.6923,0,-2.985,3.117,218,13.09,13.63,39.42638,0.215,51.6,59.5,33.69,35.56
"2016-10-18 10:10:00",258026,0.427,60.92,16.87,79.85,253.519,0,870.6923,0,0.508,3.084,268,13.14,13.62,43.9852,0.171,51.6,59.44,33.69,35.55
"2016-10-18 10:20:00",258027,0.637,11.83,15.66,86,137.9176,0,870.6923,0,0.046,3.095,217,13.16,13.62,18.51191,0.134,51.55,59.44,33.68,35.55
"2016-10-18 10:30:00",258028,0.227,343.3,15.22,92,177.9397,0,870.686,0,-0.927,3.104,206,13.19,13.62,24.48801,0.137,51.6,59.44,33.69,35.55
"2016-10-18 10:40:00",258029,0.117,284.7,15.19,93.2,116.0323,0,870.6045,0,-0.519,3.101,212,13.26,13.59,15.13903,0.13,51.6,59.44,33.69,35.55
"2016-10-18 10:50:00",258030,0.224,266.2,15.05,92.5,222.0322,0,870.4293,0,-1.438,3.109,194,13.22,13.57,30.72488,0.138,51.55,59.5,33.68,35.56
"2016-10-18 11:00:00",258031,0.176,275,15.35,88.5,260.9875,0,870.4184,0,1.445,3.08,249,13.21,13.61,35.91685,0.138,51.6,59.44,33.69,35.55
"2016-10-18 11:10:00",258032,0.154,308.4,15.39,88.4,195.5386,0,870.4203,0,1.342,3.081,238,13.26,13.62,25.88245,0.132,51.55,59.44,33.68,35.55
"2016-10-18 11:20:00",258033,0.285,291,15.18,91.8,121.8662,0,870.4155,0,1.374,3.083,240,13.28,13.61,15.22636,0.125,51.55,59.38,33.68,35.54
"2016-10-18 11:30:00",258034,0.365,270.8,14.99,93.6,197.1666,0,870.4089,0,-2.577,3.121,188,13.28,13.57,28.13734,0.142,51.55,59.38,33.68,35.54
"2016-10-18 11:40:00",258035,0.247,331.4,15.15,91.6,205.4791,0,870.1827,0,-1.802,3.113,193,13.36,13.57,29.11504,0.139,51.55,59.44,33.68,35.55
"2016-10-18 11:50:00",258036,0.242,296.9,14.87,93.1,93.41383,0,870.1602,0,-1.971,3.117,197,13.44,13.55,11.70575,0.124,51.55,59.38,33.68,35.54
"2016-10-18 12:00:00",258037,0.374,262.9,15,93.7,434.0766,0,870.0061,0,-2.679,3.122,194,13.39,13.56,64.7362,0.144,51.49,59.38,33.66,35.54
"2016-10-18 12:10:00",258038,0.2,266.2,15.33,91.1,237.5337,0,869.925,0,-0.919,3.103,194,13.44,13.61,32.6392,0.133,51.55,59.44,33.68,35.55
"2016-10-18 12:20:00",258039,0.461,345.1,15.39,90,142.2329,0,869.8736,0,-1.694,3.111,203,13.44,13.58,17.87904,0.123,51.55,59.44,33.68,35.55
"2016-10-18 12:30:00",258040,0.308,274.7,15.24,89.7,179.5426,0,869.8636,0,-1.595,3.111,201,13.46,13.57,24.34014,0.129,51.49,59.38,33.66,35.54
"2016-10-18 12:40:00",258041,0.164,207.2,15.26,88.4,260.7323,0,869.8016,0,-1.471,3.107,202,13.5,13.59,38.38329,0.142,51.49,59.38,33.66,35.54
"2016-10-18 12:50:00",258042,0.408,25.11,15.59,84.5,204.8647,0,869.6512,0,-2.082,3.112,196,13.5,13.6,29.07261,0.135,51.49,59.38,33.66,35.54
"2016-10-18 13:00:00",258043,0.307,290,16.11,82.7,530.8489,0,869.5223,0,-1.435,3.102,195,13.56,13.61,85.0994,0.154,51.49,59.38,33.66,35.54
"2016-10-18 13:10:00",258044,0.59,350.1,16.36,78.59,339.9774,0,869.3962,0,-1.085,3.1,200,13.59,13.59,50.1263,0.139,51.44,59.38,33.65,35.54
"2016-10-18 13:20:00",258045,0.456,271.8,16.05,80.4,185.0995,0,869.369,0,-1.098,3.103,216,13.61,13.6,24.74779,0.132,51.49,59.38,33.66,35.54
"2016-10-18 13:30:00",258046,0.36,283.8,15.4,83.7,100.5066,0,869.3619,0,-2.192,3.116,206,13.6,13.6,12.34505,0.123,51.49,59.32,33.66,35.52
"2016-10-18 13:40:00",258047,0.134,241.9,15.37,85.7,321.541,0,869.2734,0,-2.384,3.116,201,13.71,13.6,29.56279,0.1,51.49,59.38,33.66,35.54
"2016-10-18 13:50:00",258048,0.659,303.5,15.93,79.58,293.4921,0,869.1935,0,-1.346,3.104,203,13.7,13.59,32.20412,0.118,51.44,59.38,33.65,35.54
"2016-10-18 14:00:00",258049,0.295,333.4,16.15,78.44,159.3076,0,869.2539,0,-1.405,3.105,208,13.73,13.6,22.20904,0.137,51.44,59.32,33.65,35.52
"2016-10-18 14:10:00",258050,0.308,259.9,15.84,77.1,169.5427,0,869.132,0,-1.605,3.106,236,13.73,13.61,25.75983,0.15,51.49,59.38,33.66,35.54
"2016-10-18 14:20:00",258051,0.385,264.2,16.15,77.24,212.8565,0,869.1475,0,-2.844,3.118,224,13.77,13.62,33.05497,0.155,51.49,59.32,33.66,35.52
"2016-10-18 14:30:00",258052,0.538,291.4,16.17,76.83,200.9053,0,869.1658,0,-1.247,3.102,204,13.81,13.62,29.28894,0.145,51.49,59.32,33.66,35.52
"2016-10-18 14:40:00",258053,0.36,262.2,16.06,77.94,157.4228,0,869.1596,0,-1.16,3.103,185,13.87,13.63,22.00197,0.139,51.44,59.32,33.65,35.52
"2016-10-18 14:50:00",258054,0.202,298.9,15.9,79.78,146.5051,0,869.1588,0,-0.789,3.098,194,13.89,13.63,20.29297,0.138,51.38,59.32,33.64,35.52
"2016-10-18 15:00:00",258055,0.291,208.6,16.22,79.7,95.10891,0,869.1531,0,-1.201,3.102,194,13.91,13.63,11.71347,0.12,51.44,59.32,33.65,35.52
"2016-10-18 15:10:00",258056,0.291,17.08,15.97,77.11,48.23244,0,869.1498,0,-1.269,3.105,200,13.94,13.64,3.789541,0.077,51.44,59.32,33.65,35.52
"2016-10-18 15:20:00",258057,0.157,223.4,15.34,80.3,49.03815,0,869.1667,0,-1.187,3.107,208,13.99,13.67,4.486816,0.09,51.38,59.32,33.64,35.52
"2016-10-18 15:30:00",258058,0.298,156.7,15.31,80.8,59.39445,0,869.0654,0,-1.119,3.104,202,13.97,13.67,7.310025,0.123,51.38,59.32,33.64,35.52
"2016-10-18 15:40:00",258059,0.257,205.4,15.46,81.6,61.35958,0,869.0914,0,-1.022,3.104,209,14.04,13.67,8.109617,0.128,51.38,59.32,33.64,35.52
"2016-10-18 15:50:00",258060,0.296,187,15.55,83.5,118.3684,0,869.1774,0,-1.064,3.103,200,14.11,13.65,18.55738,0.156,51.33,59.32,33.62,35.52
"2016-10-18 16:00:00",258061,0.351,225,15.61,82.3,71.03987,0,869.3611,0,-0.968,3.103,189,14.09,13.63,10.42882,0.147,51.33,59.32,33.62,35.52
"2016-10-18 16:10:00",258062,0.425,219.5,15.39,83,63.53696,0,869.3338,0,-1.181,3.106,200,14.08,13.65,9.068372,0.142,51.33,59.32,33.62,35.52
"2016-10-18 16:20:00",258063,1.096,257.5,15.02,83.3,47.76867,0,869.2896,0,-1.145,3.108,203,14.14,13.68,6.021581,0.126,51.33,59.26,33.62,35.51
"2016-10-18 16:30:00",258064,0.59,284.3,14.76,82.1,40.53301,0,869.2938,0,-1.356,3.111,214,14.15,13.71,5.218198,0.129,51.33,59.26,33.62,35.51
"2016-10-18 16:40:00",258065,0.504,224.9,14.49,82.9,25.49182,0,869.1779,0,-1.52,3.114,206,14.15,13.71,3.209741,0.123,51.33,59.26,33.62,35.51
"2016-10-18 16:50:00",258066,0.069,185.3,14.27,84.1,12.13278,0,869.2285,0,-1.279,3.114,206,14.15,13.72,1.284654,0.105,51.33,59.26,33.62,35.51
"2016-10-18 17:00:00",258067,0.063,285.2,13.92,86.8,12.84024,0,869.1779,0,-1.388,3.116,197,14.15,13.74,1.746978,0.137,51.33,59.26,33.62,35.51
"2016-10-18 17:10:00",258068,0.316,331,13.76,85.7,4.901063,0,869.3464,0,-1.309,3.115,202,14.18,13.76,0.9132794,0.261,51.33,59.26,33.62,35.51
"2016-10-18 17:20:00",258069,0.236,324.9,13.7,85.1,0.003930284,0,869.4286,0,-1.344,3.117,202,14.19,13.78,0.02273725,0.016,51.27,59.26,33.61,35.51
"2016-10-18 17:30:00",258070,0.105,250.6,13.33,88.2,0,0,869.4286,0,-1.26,3.119,203,14.21,13.8,0,0,51.27,59.26,33.61,35.51
"2016-10-18 17:40:00",258071,0.053,326.5,12.9,90.8,0,0,869.4286,0,-1.114,3.119,202,14.21,13.79,0,0,51.33,59.26,33.62,35.51
"2016-10-18 17:50:00",258072,0.133,330.3,12.77,91.8,0,0,869.5339,0,-1.246,3.121,202,14.18,13.79,0,0,51.27,59.26,33.61,35.51
"2016-10-18 18:00:00",258073,0,0,12.65,94.8,0,0,869.576,0,-1.275,3.122,187,14.2,13.8,0,0,51.27,59.26,33.61,35.51
"2016-10-18 18:10:00",258074,0.075,304.6,12.31,96.7,0,0,869.6539,0,-0.915,3.118,202,14.15,13.8,0.06063266,0,51.27,59.2,33.61,35.5
"2016-10-18 18:20:00",258075,0.11,327,12.86,93.9,0,0,869.7424,0,-0.905,3.116,204,14.16,13.8,0.7579082,0,51.27,59.2,33.61,35.5
"2016-10-18 18:30:00",258076,0.341,346.8,12.98,91.1,0,0,869.9362,0,-0.802,3.115,197,14.18,13.83,0.5153776,0,51.21,59.2,33.6,35.5
"2016-10-18 18:40:00",258077,0.142,257.8,12.41,92.4,0,0,869.9298,0,-0.931,3.121,202,14.19,13.86,0.07200127,0,51.27,59.2,33.61,35.5
"2016-10-18 18:50:00",258078,0.131,358.5,12.33,97.7,0,0,869.934,0,-0.861,3.117,196,14.19,13.85,0.3486378,0,51.21,59.2,33.6,35.5
"2016-10-18 19:00:00",258079,0.12,198,12.37,95.1,0,0,869.9362,0,-0.781,3.12,200,14.19,13.84,0.1970561,0,51.27,59.2,33.61,35.5
"2016-10-18 19:10:00",258080,0.373,206.4,12.29,99.8,0,0,870.0162,0,-1.335,3.124,196,14.2,13.84,0.3637959,0,51.27,59.2,33.61,35.5
"2016-10-18 19:20:00",258081,0.073,244.2,12.27,100,0,0,870.1826,0,-1.467,3.126,197,14.15,13.84,0.07579082,0,51.21,59.2,33.6,35.5
"2016-10-18 19:30:00",258082,0,0,12.15,100,0,0,870.1868,0,-1.108,3.122,200,14.14,13.84,0.04547514,0,51.27,59.2,33.61,35.5
"2016-10-18 19:40:00",258083,0.005,239.1,12.28,100,0,0,870.1868,0,-1.132,3.122,200,14.08,13.85,0.4547503,0,51.21,59.2,33.6,35.5
"2016-10-18 19:50:00",258084,0.033,234.5,12.26,100,0.03144239,0,870.2921,0,-0.927,3.12,198,14.07,13.84,0.4130624,0.064,51.27,59.2,33.61,35.5
"2016-10-18 20:00:00",258085,0.071,14.89,12.23,100,0.4755655,0,870.4185,0,-1.208,3.123,194,14.07,13.83,0.4547461,0.959,51.27,59.14,33.61,35.48
"2016-10-18 20:10:00",258086,0.043,3.26,12.23,100,0.05895434,0,870.4354,0,-1.232,3.123,190,14.1,13.88,0.2197937,0.289,51.21,59.14,33.6,35.48
"2016-10-18 20:20:00",258087,0,0,12.28,100,0.06288459,0,870.4395,0,-1.179,3.122,181,14.08,13.93,0.2690577,0.466,51.21,59.14,33.6,35.48
"2016-10-18 20:30:00",258088,0,0,12.33,100,0,0,870.4395,0,-1.179,3.122,186,14.06,13.94,0.05684317,0,51.21,59.14,33.6,35.48
"2016-10-18 20:40:00",258089,0,0,12.39,100,0,0,870.4395,0,-1.023,3.12,201,14.05,13.93,0.1477922,0,51.21,59.14,33.6,35.48
"2016-10-18 20:50:00",258090,0,0,12.4,100,0,0,870.4395,0,-1.023,3.12,200,13.99,13.93,0.08715952,0,51.16,59.14,33.58,35.48
"2016-10-18 21:00:00",258091,0.001,3.296,12.4,100,0,0,870.4374,0,-1.131,3.122,200,14,13.93,0,0,51.21,59.14,33.6,35.48
"2016-10-18 21:10:00",258092,0,0,12.23,100,0,0,870.2753,0,-0.98,3.121,201,14.02,13.92,0,0,51.21,59.14,33.6,35.48
"2016-10-18 21:20:00",258093,0,0,12.19,100,0,0,870.1994,0,-1.088,3.123,201,14.03,13.91,0.01515818,0,51.16,59.14,33.58,35.48
"2016-10-18 21:30:00",258094,0.005,97.1,11.96,100,0,0,870.3047,0,-1.146,3.125,190,14.01,13.92,0,0,51.21,59.08,33.6,35.47
"2016-10-18 21:40:00",258095,0.034,179.7,11.65,100,0,0,870.3111,0,-1.204,3.127,200,13.97,13.93,0,0,51.21,59.14,33.6,35.48
"2016-10-18 21:50:00",258096,0.356,183,11.18,100,0,0,870.3616,0,-1.213,3.129,201,13.97,13.93,0,0,51.16,59.08,33.58,35.47
"2016-10-18 22:00:00",258097,0.065,194.1,11,100,0,0,870.4142,0,-1.17,3.13,200,13.94,13.93,0,0,51.21,59.08,33.6,35.47
"2016-10-18 22:10:00",258098,0.126,191.4,10.81,100,0,0,870.4395,0,-1.172,3.13,201,13.93,13.94,0.1705309,0,51.21,59.08,33.6,35.47
"2016-10-18 22:20:00",258099,0.047,192.8,10.95,100,0,0,870.4037,0,-1.142,3.128,201,13.95,13.94,0.629083,0,51.16,59.08,33.58,35.47
"2016-10-18 22:30:00",258100,0.135,192.1,11.04,100,0,0,870.2057,0,-1.299,3.129,196,13.99,13.96,0.6025819,0,51.16,59.08,33.58,35.47
"2016-10-18 22:40:00",258101,0,0,11.25,100,0,0,870.3047,0,-1.174,3.127,199,13.99,13.99,0.8641089,0,51.16,59.08,33.58,35.47
"2016-10-18 22:50:00",258102,0,0,11.24,100,0.2397791,0,870.4101,0,-1.215,3.13,201,13.93,14.01,0.4851255,0.98,51.16,59.08,33.58,35.47
"2016-10-18 23:00:00",258103,0,0,10.89,100,0,0,870.2332,0,-1.19,3.13,200,13.88,14.02,0,0,51.21,59.08,33.6,35.47
"2016-10-18 23:10:00",258104,0,0,11.37,100,0.1572284,0,870.2921,0,-1.316,3.127,197,13.87,14,1.015706,1.253,51.16,59.08,33.58,35.47
"2016-10-18 23:20:00",258105,0,0,11.75,100,0,0,870.1889,0,-1.537,3.129,201,13.86,14,0.8640801,0,51.16,59.08,33.58,35.47
"2016-10-18 23:30:00",258106,0,0,11.57,100,0,0,870.191,0,-1.13,3.126,201,13.85,13.99,0.3941293,0,51.16,59.08,33.58,35.47
"2016-10-18 23:40:00",258107,0,0,11.56,100,0,0,870.3027,0,-1.104,3.126,201,13.87,14.02,0.4547544,0,51.16,59.08,33.58,35.47
"2016-10-18 23:50:00",258108,0,0,11.41,100,0,0,870.4037,0,-1.078,3.126,200,13.88,14,0.3221136,0,51.16,59.03,33.58,35.45
